Location: Songkhla
(7.2000°N, 100.6000°E)
Time: 03:35:35
(UTC+07:00)

SL-8 DEB - All Passes

Search period start: 18 May 2021 00:00
Search period end: 28 May 2021 00:00
Orbit: 1414 x 1696 km, 73.9° (Epoch: 02 June)

Date Brightness Start Highest point End Pass type
(mag) Time Alt. Az. Time Alt. Az. Time Alt. Az.
18 May - 01:35:33 10° NNW 01:44:57 75° W 01:53:49 10° S visible
18 May - 12:25:00 10° SSE 12:32:13 27° E 12:39:41 10° NE daylight
18 May - 14:22:52 10° SW 14:31:20 43° WNW 14:40:18 10° N daylight
19 May - 01:02:03 10° N 01:11:29 75° ENE 01:20:20 10° SSE visible
19 May - 03:07:02 10° WNW 03:10:20 12° W 03:13:36 10° WSW night (unlit)
19 May - 11:53:43 10° SE 11:58:52 16° E 12:04:05 10° ENE daylight
19 May - 13:48:48 10° SSW 13:57:48 65° WNW 14:07:19 10° N daylight
20 May - 00:28:56 10° N 00:37:57 50° ENE 00:46:26 10° SSE visible
20 May - 02:30:28 10° NW 02:36:59 22° W 02:43:18 10° SW visible
20 May - 13:15:10 10° S 13:24:18 87° ESE 13:33:58 10° NNE daylight
20 May - 15:22:31 10° W 15:24:16 11° WNW 15:26:03 10° WNW daylight
20 May - 23:56:15 10° NNE 00:04:21 33° ENE 00:12:03 10° SE visible
21 May - 01:55:33 10° NW 02:03:37 34° W 02:11:22 10° SSW visible
21 May - 12:41:57 10° S 12:50:52 60° E 13:00:16 10° NNE daylight
21 May - 14:44:29 10° WSW 14:50:30 19° WNW 14:56:44 10° NNW daylight
21 May - 23:24:13 10° NNE 23:30:41 21° ENE 23:36:54 10° ESE visible
22 May - 01:21:18 10° NNW 01:30:14 53° W 01:38:43 10° S visible
22 May - 12:09:10 10° SSE 12:17:29 40° E 12:26:10 10° NE daylight
22 May - 14:09:07 10° SW 14:16:49 30° WNW 14:24:54 10° NNW daylight
22 May - 22:53:52 10° NE 22:56:57 12° ENE 22:59:57 10° E visible
23 May - 00:47:28 10° NNW 00:56:49 79° W 01:05:37 10° S visible
23 May - 11:36:58 10° SSE 11:44:06 26° E 11:51:28 10° NE daylight
23 May - 13:34:34 10° SSW 13:43:13 46° WNW 13:52:21 10° N daylight
24 May - 00:14:02 10° N 00:23:20 71° ENE 00:32:05 10° SSE visible
24 May - 02:18:27 10° WNW 02:22:12 13° W 02:25:55 10° WSW night (unlit)
24 May - 11:05:53 10° SE 11:10:45 15° E 11:15:43 10° ENE daylight
24 May - 13:00:34 10° SSW 13:09:41 68° WNW 13:19:19 10° N daylight
24 May - 23:40:58 10° N 23:49:48 47° ENE 23:58:08 10° SSE visible
25 May - 01:42:12 10° NW 01:48:51 23° W 01:55:18 10° SSW visible
25 May - 12:26:59 10° S 12:36:12 83° ESE 12:45:56 10° NNE daylight
25 May - 14:33:10 10° W 14:36:07 12° WNW 14:39:07 10° NW daylight
25 May - 23:08:20 10° NNE 23:16:12 31° ENE 23:23:39 10° SE visible
26 May - 01:07:22 10° NW 01:15:29 36° W 01:23:16 10° SSW visible
26 May - 11:53:48 10° S 12:02:46 57° E 12:12:11 10° NNE daylight
26 May - 13:55:59 10° WSW 14:02:21 20° WNW 14:08:59 10° NNW daylight
26 May - 22:36:26 10° NNE 22:42:32 19° ENE 22:48:23 10° ESE visible
27 May - 00:33:10 10° NNW 00:42:06 55° W 00:50:34 10° S visible
27 May - 11:21:05 10° SSE 11:29:23 38° E 11:38:00 10° NE daylight
27 May - 13:20:45 10° SW 13:28:42 32° WNW 13:37:01 10° NNW daylight
27 May - 22:06:50 10° ENE 22:08:45 11° ENE 22:10:39 10° E visible
